Weather in Sogda

Russia / Khabarovsk Krai     50°20′22″N   132°16′47″E
temp.,
°C
wind,
m/s
gust,
m/s
humid.,
%
clouds,
%
prec.,
mm/h
press.,
hPa
HPBL,
m
27 february, sat
sat2701:00−23nnw00940 0.0 103420
04:00−23e119616 0.0 103420
07:00−25e119864 0.0 103220
10:00−18e128981 0.0 1030132
13:00−12se2477100 0.0 1026385
16:00−10se5979100 0.0 1020623
19:00−13ese41086100 0.0 1019444
22:00−15se3896100 1.6 1017397
28 february, sun
sun2801:00−15ese1497100 1.4 1015227
04:00−16ese0197100 1.9 101523
07:00−17sw1199100 0.1 101820
10:00−15w3790100 0.2 1020373
13:00−14w477594 0.0 1023864
16:00−14w587588 0.0 10241061
19:00−19wnw498995 0.0 1027303
22:00−24nw229577 0.1 102937
1 march, mon
mon101:00−27wnw129433 0.0 103141
04:00−28nw129417 0.0 103321
07:00−30wnw12950 0.0 103419
10:00−25w25800 0.0 1035266
13:00−19wnw510670 0.0 10331276
16:00−18wnw597342 0.0 10321337
19:00−23wnw2392100 0.0 103360
22:00−26nw229366 0.0 103421
2 march, tue
tue201:00−29nnw12930 0.0 103419
04:00−30nnw11910 0.0 103519
07:00−31wnw11920 0.0 103619
10:00−25ssw11870 0.0 1035150
13:00−19wsw137722 0.0 1032760
16:00−18w247761 0.0 1030930
19:00−22se1193100 0.0 103020
22:00−24e119799 0.0 103120
3 march, wed
wed301:00−25e119897 0.0 102919
04:00−24ese119899 0.0 102825
07:00−23e1198100 0.1 102630
10:00−20ese2492100 0.1 1023260
13:00−16se3784100 0.1 1020621
16:00−12sse4791100 0.4 1016737
19:00−15se4896100 0.9 1015462
22:00−19se2598100 1.5 1015189